Location: Archemont
(49.1579°N, 1.7598°E)
Time: 15:18:17
(UTC+00:00)

Cosmos 1461 - Pass Details

Date: 03 February 2023
Orbit: 492 x 643 km, 65.0° (Epoch: 29 March)

Event Time Altitude Azimuth Distance (km) Brightness Sun altitude
Rises 19:10:04 0° 230° (SW) 2,762 7.2 -22.6°
Reaches altitude 10° 19:12:16 10° 235° (SW) 1,895 6.3 -23.0°
Maximum altitude 19:16:29 55° 314° (NW) 727 3.6 -23.7°
Enters shadow 19:17:37 42° 4° (N) 873 3.7 -23.9°
